AZV2901 VTSP-UUWW

Flight info

Callsign AZV2901
Flight time N/A
Altitude 32000
Route UPSAB1A UPSAB L515 OBMOG M770 KAKID M875 DOMET/N0500F340 M875 JHANG A466 SITAX M875 AMDAR/K0909F340 M875 FAZUL/K0898F360 M875 MILSO M161 LEDGI M166 ARISA L736 OLOPI OLOPI3A
Aircraft B77W/H-SDE1E2E3FGHIJ2J3J4J5M1RWXY/LB1D1

Departure

Time 2026-05-04 13:12
Airport Phuket International Airport (VTSP)

Arrival

Time N/A
Airport Vnukovo International Airport (UUWW)
Time Latitude Longitude Altitude Speed Heading
2026-05-04 12:43 8.10714 98.30499 93 ft 0 kts 104°
2026-05-04 13:03 8.10716 98.30492 93 ft 2 kts 105°
2026-05-04 13:04 8.10720 98.30477 94 ft 2 kts 104°
2026-05-04 13:04 8.10722 98.30467 94 ft 0 kts 104°
2026-05-04 13:04 8.10726 98.30454 93 ft 2 kts 92°
2026-05-04 13:04 8.10724 98.30438 93 ft 2 kts 73°
2026-05-04 13:05 8.10718 98.30424 94 ft 2 kts 57°
2026-05-04 13:05 8.10709 98.30413 93 ft 2 kts 41°
2026-05-04 13:05 8.10697 98.30404 93 ft 2 kts 26°
2026-05-04 13:05 8.10687 98.30400 93 ft 0 kts 14°
2026-05-04 13:06 8.10684 98.30399 93 ft 0 kts 13°
2026-05-04 13:08 8.10685 98.30399 93 ft 0 kts 13°
2026-05-04 13:08 8.10700 98.30404 93 ft 4 kts 15°
2026-05-04 13:08 8.10720 98.30409 93 ft 3 kts 15°
2026-05-04 13:08 8.10751 98.30418 93 ft 5 kts 15°
2026-05-04 13:09 8.10793 98.30429 93 ft 6 kts 14°
2026-05-04 13:09 8.10844 98.30442 93 ft 8 kts 14°
2026-05-04 13:09 8.10903 98.30458 93 ft 9 kts 14°
2026-05-04 13:09 8.10971 98.30471 93 ft 10 kts
2026-05-04 13:10 8.11029 98.30439 93 ft 10 kts 282°
2026-05-04 13:10 8.11054 98.30369 93 ft 10 kts 323°
2026-05-04 13:10 8.11131 98.30347 93 ft 11 kts 350°
2026-05-04 13:10 8.11192 98.30366 93 ft 8 kts 73°
2026-05-04 13:11 8.11195 98.30384 93 ft 0 kts 84°
2026-05-04 13:11 8.11197 98.30407 93 ft 16 kts 84°
2026-05-04 13:11 8.11232 98.30776 93 ft 89 kts 84°
2026-05-04 13:11 8.11318 98.31657 94 ft 158 kts 84°
2026-05-04 13:12 8.11446 98.32935 273 ft 200 kts 85°
2026-05-04 13:12 8.11547 98.34307 1127 ft 202 kts 86°
2026-05-04 13:12 8.11664 98.35741 1644 ft 210 kts 83°
2026-05-04 13:12 8.11829 98.37233 2051 ft 220 kts 83°
2026-05-04 13:13 8.12002 98.38786 2552 ft 227 kts 83°
2026-05-04 13:13 8.12158 98.40410 3034 ft 237 kts 85°
2026-05-04 13:13 8.12284 98.42076 3564 ft 246 kts 85°
2026-05-04 13:13 8.12444 98.43836 4085 ft 257 kts 84°
2026-05-04 13:14 8.12625 98.45618 4791 ft 260 kts 84°
2026-05-04 13:14 8.12799 98.47433 5540 ft 261 kts 84°
2026-05-04 13:14 8.12972 98.49254 6283 ft 262 kts 84°
2026-05-04 13:14 8.13143 98.51071 6955 ft 265 kts 84°
2026-05-04 13:15 8.13319 98.52949 7590 ft 269 kts 84°
2026-05-04 13:15 8.13493 98.54813 8282 ft 270 kts 84°
2026-05-04 13:15 8.13671 98.56705 8910 ft 273 kts 83°
2026-05-04 13:15 8.14172 98.58553 9451 ft 278 kts 63°
2026-05-04 13:16 8.15360 98.60102 10029 ft 284 kts 41°
2026-05-04 13:16 8.17098 98.61117 10382 ft 301 kts 20°
2026-05-04 13:16 8.19229 98.61445 10667 ft 319 kts
2026-05-04 13:16 8.21462 98.61488 11309 ft 322 kts
2026-05-04 13:17 8.23713 98.61530 11967 ft 324 kts
2026-05-04 13:17 8.26011 98.61597 12576 ft 328 kts
2026-05-04 13:17 8.28287 98.61673 13178 ft 331 kts
2026-05-04 13:17 8.30614 98.61754 13767 ft 335 kts
2026-05-04 13:18 8.32931 98.61487 14297 ft 343 kts 345°
2026-05-04 13:18 8.35120 98.60428 14809 ft 352 kts 326°
2026-05-04 13:18 8.36943 98.58694 15119 ft 368 kts 308°
2026-05-04 13:18 8.38183 98.56406 15290 ft 386 kts 291°
2026-05-04 13:19 8.39106 98.53791 15517 ft 401 kts 290°
2026-05-04 13:19 8.40066 98.51079 15736 ft 416 kts 291°
2026-05-04 13:19 8.41068 98.48325 15981 ft 429 kts 291°
2026-05-04 13:19 8.42127 98.45464 16369 ft 437 kts 291°
2026-05-04 13:20 8.43200 98.42598 16914 ft 441 kts 291°
2026-05-04 13:20 8.44296 98.39689 17529 ft 442 kts 292°
2026-05-04 13:20 8.45394 98.36787 18042 ft 446 kts 291°
2026-05-04 13:20 8.46506 98.33858 18510 ft 450 kts 292°
2026-05-04 13:21 8.47636 98.30889 19013 ft 454 kts 292°
2026-05-04 13:21 8.48758 98.27943 19505 ft 457 kts 292°
2026-05-04 13:21 8.49906 98.24935 19970 ft 460 kts 292°
2026-05-04 13:21 8.51065 98.21899 20426 ft 464 kts 292°
2026-05-04 13:22 8.52230 98.18847 20876 ft 467 kts 291°
2026-05-04 13:22 8.53394 98.15798 21308 ft 470 kts 292°
2026-05-04 13:22 8.54784 98.12792 21718 ft 472 kts 301°
2026-05-04 13:22 8.56624 98.10067 22148 ft 473 kts 310°
2026-05-04 13:23 8.58911 98.07639 22578 ft 474 kts 320°
2026-05-04 13:23 8.61523 98.05647 23017 ft 474 kts 329°
2026-05-04 13:23 8.64423 98.04034 23438 ft 476 kts 334°
2026-05-04 13:23 8.67414 98.02522 23867 ft 478 kts 335°
2026-05-04 13:24 8.70370 98.01038 24282 ft 481 kts 335°
2026-05-04 13:24 8.73410 97.99510 24705 ft 483 kts 335°
2026-05-04 13:24 8.76402 97.98006 25106 ft 485 kts 335°
2026-05-04 13:25 8.82496 97.94941 25896 ft 491 kts 334°
2026-05-04 13:25 8.85588 97.93385 26284 ft 493 kts 334°
2026-05-04 13:25 8.88668 97.91834 26655 ft 496 kts 334°
2026-05-04 13:25 8.91736 97.90289 27020 ft 499 kts 334°
2026-05-04 13:26 8.94868 97.88711 27386 ft 502 kts 334°
2026-05-04 13:26 8.97989 97.87139 27759 ft 504 kts 334°
2026-05-04 13:26 9.01137 97.85553 28150 ft 506 kts 334°
2026-05-04 13:26 9.04304 97.83955 28557 ft 507 kts 334°
2026-05-04 13:27 9.07474 97.82354 28935 ft 509 kts 334°
2026-05-04 13:27 9.10643 97.80753 29357 ft 510 kts 334°
2026-05-04 13:27 9.13821 97.79147 29883 ft 509 kts 334°
2026-05-04 13:27 9.17000 97.77541 30456 ft 506 kts 334°
2026-05-04 13:28 9.20156 97.75946 31010 ft 503 kts 334°
2026-05-04 13:28 9.23275 97.74369 31501 ft 502 kts 334°
2026-05-04 13:28 9.26415 97.72782 31840 ft 503 kts 334°
2026-05-04 13:28 9.29542 97.71201 31866 ft 504 kts 334°
2026-05-04 13:29 9.35806 97.68032 31868 ft 500 kts 334°
2026-05-04 13:29 9.42049 97.64874 31868 ft 502 kts 334°
2026-05-04 13:30 9.48312 97.61703 31869 ft 502 kts 334°
2026-05-04 13:30 9.54540 97.58549 31869 ft 502 kts 334°
2026-05-04 13:31 9.60801 97.55376 31869 ft 502 kts 334°
2026-05-04 13:31 9.67080 97.52194 31868 ft 501 kts 334°
2026-05-04 13:32 9.73286 97.49047 31868 ft 499 kts 333°
2026-05-04 13:32 9.79535 97.45877 31868 ft 503 kts 333°
2026-05-04 13:33 9.85826 97.42684 31868 ft 505 kts 334°
2026-05-04 13:33 9.92100 97.39499 31867 ft 503 kts 333°
2026-05-04 13:34 9.98348 97.36326 31868 ft 501 kts 333°
2026-05-04 13:34 10.04634 97.33149 31868 ft 501 kts 333°
2026-05-04 13:35 10.13991 97.28445 31867 ft 500 kts 333°
2026-05-04 13:36 10.20243 97.25300 31868 ft 501 kts 333°
2026-05-04 13:36 10.26517 97.22141 31862 ft 501 kts 333°
2026-05-04 13:37 10.32754 97.18999 31855 ft 501 kts 333°
2026-05-04 13:37 10.38996 97.15853 31851 ft 501 kts 333°
2026-05-04 13:38 10.43204 97.13731 31851 ft 501 kts 333°
2026-05-04 13:38 10.44637 97.13010 31850 ft 501 kts 333°
2026-05-04 13:39 10.44987 97.12833 31849 ft 501 kts 333°
2026-05-04 13:39 10.51204 97.09696 31848 ft 501 kts 333°
2026-05-04 13:40 10.57460 97.06539 31848 ft 501 kts 333°
2026-05-04 13:40 10.63708 97.03384 31849 ft 501 kts 333°
2026-05-04 13:41 10.67626 97.01405 31848 ft 501 kts 333°
2026-05-04 13:41 10.68877 97.00774 31848 ft 501 kts 333°
2026-05-04 13:42 10.69452 97.00483 31848 ft 501 kts 333°